SL-3 R/B

Satellite information

Favourite Embed

Satellite Type and Status

ROCKET BODYIN ORBIT

Key statistics

Satellite SL-3 R/B at a glance.

Uptime

22170

Days in orbit

Revolutions

≈ 14.6

Per day

Orbit

LEO

Low Earth Orbit

Inclination

65.1

Latest

Satellite identification and parameters

Extended collection of information and parameters for SL-3 R/B.

Object identification

Identified? True

Debris? False

Object name: SL-3 R/B

International designator: 1964-053B

Object number (NORAD): 877

Object ID (CCSDS): 877

Country: COMMONWEALTH OF INDEPENDENT STATES (CIS)

Current information (Y/N): Y

RCS size: LARGE

Orbital parameters

Period: 98.559 minutes

Inclination: 65.0752 deg

SMA: 7067.901 km

Apoapsis: 725.797 km

Periapsis: 653.735 km

RAAN: 142.6639 deg

Eccentricy: 0.0050978

Argument of periapsis: 47.05 deg

Mean anomaly: 313.4858 deg

Mean motion: 14.61056781 rev/day

Mean motion (dot): 0.00000293 rev/day2

B* drag term: 0.000082756 1/REarth

Two-line elements (TLE)

Creation date: May 10, 2025, 2:32 a.m.

Reference frame: TEME

Reference center: EARTH

Epoch: May 9, 2025, 12:50 p.m. UTC

TLE line 0: 0 SL-3 R/B

TLE line 1: 1 00877U 64053B 25129.53502359 .00000293 00000-0 82756-4 0 9997

TLE line 2: 2 00877 65.0752 142.6639 0050978 47.0500 313.4858 14.61056781222350

Live tracking on map

Real-time ground track for satellite SL-3 R/B.

In-orbit conjunctions

A list of the most updated potential collisions computed for object SL-3 R/B.

Target Orbit TCA Probability of collision Miss distance Type
FENGYUN 1C DEB SSO 2025-03-05 23:07:22 0.0001370643 538.0 (m) DEBRIS
DMSP 5D-2 F11 DEB SSO 2024-11-30 22:16:58 0.0001591024 144.0 (m) DEBRIS

Associated space launch

The Meteor-1 series was the first series of Soviet meteorological satellites.

SL-3 R/B was lifted into orbit during the mission ‘Vostok 8A92M | Meteor-1 1’, on board a Vostok 8A92M space rocket.

The launch took place on Aug. 28, 1964, 4 p.m. from 31/6.

For more information about the launch, click the button.

Launch to space Vostok 8A92M | Meteor-1 1
Vostok 8A92M | Meteor-1 1

Agency: N/A

Status: Launch Successful

Launch date: Aug. 28, 1964, 4 p.m. UTC

Rocket: Vostok 8A92M

Launch pad: 31/6

Location: Baikonur Cosmodrome, Republic of Kazakhstan

...

Latest news about this satellite

There are no fresh news available about this satellite. Check back as we update our databases every day.


Newsletter sign-up

Weekly statistics, charts and insights to help you stay on top of the space industry.